{"data":{"norad_id":66507,"intl_designator":"2025-263Y","name":"STARLINK-34767","alt_names":[],"object_type":"PAYLOAD","status":"ACTIVE","operator":null,"country":"US","launch_date":"2025-11-15","launch_site_code":"AFETR","launch_vehicle":null,"mission":null,"orbit_class":"UNKNOWN","rcs_meters":null,"size_class":null,"mass_kg":null,"dimensions":null,"purposes":["comms"],"wikipedia_slug":null,"has_3d_model":false,"image_url":null,"decayed_at":null,"tle_current":{"epoch":"2026-09-20T15:44:36.977856Z","epoch_age_seconds":76201,"freshness":"FRESH","line1":"1 66507U 25263Y   26263.65598354  .00018552  00000+0  68120-3 0  9996","line2":"2 66507  43.0033 329.8778 0001663 264.2336  95.8327 15.27618556 48715","mean_motion":15.27618556,"eccentricity":0.0001663,"inclination_deg":43.0033,"raan_deg":329.8778,"arg_perigee_deg":264.2336,"mean_anomaly_deg":95.8327,"bstar":0.0006812,"rev_number":4871,"period_min":94.264369488321,"perigee_km":481.7926518847,"apogee_km":484.0746439822,"semimajor_km":6861.0706479335,"source":"CELESTRAK","updated_at":"2026-09-21T09:00:35.923780Z"}}}